Tracking 27380 objects as of 6-Jun-2023
HD Live streaming from Space Station
objects crossing your sky now

SKYSAT C15

Track SKYSAT C15 now!
10-day predictions


NORAD ID: 45790
Int'l Code: 2020-038BN
Perigee: 434.6 km
Apogee: 450.8 km
Inclination: 53.0 °
Period: 93.3 minutes
Semi major axis: 6813 km
RCS: Unknown
Launch date: June 13, 2020
Source: United States (US)
Launch site: AIR FORCE EASTERN TEST RANGE (AFETR)
Your satellite tracking list
Your tracking list is empty




NASA's NSSDC Master Catalog

Two Line Element Set (TLE):
1 45790U 20038BN  23156.86349491  .00019475  00000-0  43402-3 0  9991
2 45790  52.9838  50.3255 0011888 322.8483  37.1697 15.43562052169707
Source of the keplerian elements: AFSPC